EHI
0 0 0 0 0 0 0 0 0 0 0 0 0 0 0 0 0 0 0 0 0 0 0 0 0 0 0 0 0 0 0 0 0 0 0 0 0 0 0 0 0 0 0
0 0 0 0 0 0 0 0 0 0 0 0 0 0 0 0 0 0 0 0 0 0 0 0 0 0 0 0 0 0 0 0 0 0 0 0 0 0 0 0 0 0 0
0 0 0 0 0 0 0 0 0 0 0 0 0 0 0 0 0 0 0 0 0 0 0 0 0 0 0 0 0 0 0 0 0 0 0 0 0 0 0 0 0 0 0
0 0 0 0 0 0 0 0 0 0 0 0 0 0 0 0 0 0 0 0 0 0 0 0 0 0 0 0 0 0 0 0 0 0 0 0 0 0 0 0 0 0 0
0 0 0 0 0 0 0 0 0 0 0 0 0 0 0 0 0 0 0 0 0 0 0 0 0 0 0 0 0 0 0 0 0 0 0 0 0 0 0 0 0 0 0
0 0 0 0 0 0 0 0 0 0 0 0 0 0 0 0 0 0 0 0 0 0 0 0 0 0 0 0 0 0 0 0 0 0 0 0 0 0 0 0 0 0 0
0 0 0 0 0 0 0 0 0 0 0 0 0 0 0 0 0 0 0 0 0 0 0 0 0 0 0 0 0 0 0 0 0 0 0 0 0 0 0 0 0 0 0
0 0 0 0 0 0 0 0 0 0 0 0 0 0 0 0 0 0 0 0 0 0 0 0 0 0 0 0 0 0 0 0 0 0 0 0 0 0 0 0 0 0 0
0 0 0 0 0 0 0 0 0 0 0 0 0 0 0 0 0 0 0 0 0 0 0 0 0 0 0 0 0 0 0 0 0 0 0 0 0 0 0 0 0 0 0
0 0 0 0 0 0 0 0 0 0 0 0 0 0 0 0 0 0 0 0 0 0 0 0 0 0 0 0 0 0 0 0 0 0 0 0 0 0 0 0 0 0 0
0 0 0 0 0 0 0 0 0 0 0 0 0 0 0 0 0 0 0 0 0 0 0 0 0 0 0 0 0 0 0 0 0 0 0 0 0 0 0 0 0 0 0
0 0 0 0 0 0 0 0 0 0 0 0 0 0 0 0 0 0 0 0 0 0 0 0 0 0 0 0 0 0 0 0 0 0 0 0 0 0 0 0 0 0 0
0 0 0 0 0 0 0 0 0 0 0 0 0 0 0 0 0 0 0 0 0 0 0 0 0 0 0 0 0 0 0 0 0 0 0 0 0 0 0 0 0 0 0
0 0 0 0 0 0 0 0 0 0 0 0 0 0 0 0 0 0 0 0 0 0 0 0 0 0 0 0 0 0 0 0 0 0 0 0 0 0 0 0 0 0 0
0 0 0 0 0 0 0 0 0 0 0 0 0 0 0 0 0 0 0 0 0 0 0 0 0 0 0 0 0 0 0 0 0 0 0 0 0 0 0 0 0 0 0
0 0 0 0 0 0 0 0 0 0 0 0 0 0 0 0 0 0 0 0 0 0 0 0 0 0 0 0 0 0 0 0 0 0 0 0 0 0 0 0 0 0 0
0 0 0 0 0 0 0 0 0 0 0 0 0 0 0 0 0 0 0 0 0 0 0 0 0 0 0 0 0 0 0 0 0 0 0 0 0 0 0 0 0 0 0
0 0 0 0 0 0 0 0 0 0 0 0 0 0 0 0 0 0 0 0 0 0 0 0 0 0 0 0 0 0 0 0 0 0 0 0 0 0 0 0 0 0 0
0 0 0 0 0 0 0 0 0 0 0 0 0 0 0 0 0 0 0 0 0 0 0 0 0 0 0 0 0 0 0 0 0 0 0 0 0 0 0 0 0 0 0
0 0 0 0 0 0 0 0 0 0 0 0 0 0 0 0 0 0 0 0 0 0 0 0 0 0 0 0 0 0 0 0 0 0 0 0 0 0 0 0 0 0 0
0 0 0 0 0 0 0 0 0 0 0 0 0 0 0 0 0 0 0 0 0 0 0 0 0 0 0 0 0 0 0 0 0 0 0 0 0 0 0 0 0 0 0
0 0 0 0 0 0 0 0 0 0 0 0 0 0 0 0 0 0 0 0 0 0 0 0 0 0 0 0 0 0 0 0 0 0 0 0 0 0 0 0 0 0 0
0 0 0 0 0 0 0 0 0 0 0 0 0 0 0 0 0 0 0 0 0 0 0 0 0 0 0 0 0 0 0 0 0 0 0 0 0 0 0 0 0 0 0
0 0 0 0 0 0 0 0 0 0 0 0 0 0 0 0 0 0 0 0 0 0 0 0 0 0 0 0 0 0 0 0 0 0 0 0 0 0 0 0 0 0 0
0 0 0 0 0 0 0 0 0 0 0 0 0 0 0 0 0 0 0 0 0 0 0 0 0 0 0 0 0 0 0 0 0 0 0 0 0 0 0 0 0 0 0
0 0 0 0 0 0 0 0 0 0 0 0 0 0 0 0 0 0 0 0 0 0 0 0 0 0 0 0 0 0 0 0 0 0 0 0 0 0 0 0 0 0 0
Wind_Speed
4 3 1 1 0 2 3 4 4 3 4 4 5 5 4 7 7 6 7 7 7 7 7 8 10 10 9 8 7 6 6 7 8 9 8 8 9 9 7 7 7 6 7
2 1 1 1 1 2 4 5 4 4 5 6 5 5 6 8 8 7 8 8 7 8 9 9 11 10 11 10 8 8 7 7 7 8 9 8 9 8 7 7 6 5 5
1 3 3 2 1 3 5 5 5 4 5 7 6 7 7 7 7 8 7 7 6 7 8 10 12 12 12 10 9 9 8 7 7 7 9 7 6 5 7 7 6 5 4
2 3 3 3 3 4 5 5 5 5 7 8 8 7 7 5 5 6 4 4 5 7 9 11 12 12 12 12 10 10 8 7 7 8 8 8 10 8 7 7 5 4 3
2 4 4 4 5 6 6 5 5 6 8 8 7 6 5 4 4 2 1 3 6 9 11 11 11 15 18 15 11 9 7 7 6 7 9 9 8 8 7 5 5 3 2
5 5 4 5 6 7 7 5 5 7 7 4 4 4 5 3 4 5 4 4 7 9 10 11 12 14 15 16 17 15 13 11 9 9 10 10 11 9 7 6 3 3 3
5 5 4 5 7 7 7 6 5 6 6 6 5 5 4 3 4 7 10 6 7 8 10 11 10 11 12 11 13 15 16 17 17 14 13 14 13 10 7 5 4 3 2
4 5 5 5 5 4 4 5 5 5 5 4 5 6 6 6 10 11 14 8 8 10 11 10 10 12 12 12 10 11 11 12 14 13 13 14 12 9 6 4 4 5 4
5 5 5 4 3 5 5 5 5 4 4 4 4 5 6 8 12 14 13 8 9 10 11 10 11 10 13 15 12 11 11 10 12 15 14 12 15 9 8 7 7 6 3
4 3 3 4 6 6 5 4 4 4 4 6 6 6 7 8 11 14 15 8 9 9 9 10 14 14 16 16 11 9 9 10 9 7 6 7 8 9 9 6 6 4 3
2 4 6 6 6 5 4 4 4 5 6 6 6 6 6 8 11 16 17 10 8 8 8 8 9 15 16 14 10 8 9 9 6 3 3 6 7 7 7 6 5 3 2
5 6 5 5 5 4 4 4 5 5 7 8 7 6 6 7 11 16 18 15 14 8 8 7 8 14 15 12 10 10 9 3 2 4 4 6 7 7 7 8 8 7 6
6 6 4 5 5 4 4 4 4 5 6 7 7 8 8 8 9 15 16 16 17 11 9 13 14 13 11 9 11 10 5 4 5 6 6 7 7 7 7 8 8 9 11
6 5 5 5 5 5 4 4 4 5 6 7 7 7 7 8 8 9 9 10 13 11 11 12 14 11 10 11 9 7 5 7 7 7 7 7 7 6 6 6 7 8 8
6 6 4 5 5 5 5 4 4 3 4 6 6 5 7 8 11 14 12 10 9 11 11 7 7 8 8 8 7 7 7 8 8 7 7 7 6 7 7 6 7 7 6
6 4 4 4 5 5 5 5 4 3 4 7 10 8 7 9 15 16 17 16 15 15 8 7 8 9 8 7 7 7 7 8 7 7 6 7 7 7 6 6 7 7 7
6 5 4 5 4 5 5 5 7 8 8 9 11 12 12 13 15 17 17 15 11 10 7 8 8 7 7 8 7 6 6 7 7 6 7 7 7 6 6 7 8 7 7
7 6 5 4 4 5 5 5 6 6 7 7 9 10 12 15 15 16 16 11 9 9 8 8 8 8 7 7 7 6 6 7 7 6 7 7 7 6 7 8 7 7 8
6 5 4 5 5 6 6 5 6 6 6 6 8 10 11 12 13 13 13 9 8 8 8 8 8 8 7 6 6 7 7 6 6 6 6 7 7 6 6 7 7 9 9
6 7 6 5 5 5 6 7 6 6 6 6 7 8 9 9 9 9 9 9 9 9 9 8 8 8 7 6 6 6 6 6 7 7 7 6 5 5 5 7 7 8 8
5 5 6 5 4 4 5 5 6 6 6 6 6 9 13 9 7 8 8 9 9 9 9 8 8 8 7 6 5 5 6 6 6 7 6 4 4 4 4 5 7 7 7
5 4 4 4 5 6 6 7 7 7 7 7 7 9 12 9 8 8 9 9 8 8 8 7 6 6 6 6 5 4 5 5 5 4 4 4 3 4 4 5 6 7 7
4 4 4 5 5 6 7 7 7 7 7 7 7 7 8 8 8 9 9 9 9 8 8 8 8 7 7 6 6 5 5 4 4 6 5 4 4 4 4 5 6 7 7
4 4 4 4 5 5 6 7 7 8 8 8 8 8 8 8 8 9 9 9 9 9 8 8 8 10 11 8 6 5 4 4 5 5 4 5 5 5 6 6 7 8 7
3 3 3 3 4 5 6 7 7 7 8 7 7 8 8 8 8 9 9 9 9 9 10 9 9 11 13 12 10 7 6 6 6 4 3 5 7 6 6 7 7 7 7
4 4 3 3 4 4 5 5 6 7 7 7 7 8 8 8 8 8 9 9 9 9 10 10 12 14 14 12 12 9 6 5 5 5 5 5 5 6 6 6 7 7 7
Wind_Direction
161 181 113 55 286 274 270 272 274 298 303 280 259 256 272 275 268 259 261 269 276 292 298 300 298 301 295 285 265 252 246 246 265 276 275 278 273 267 272 272 281 280 286
171 197 236 289 358 303 275 271 277 288 289 281 276 269 275 276 271 259 267 276 283 290 296 301 299 298 291 285 275 270 261 252 255 273 282 277 264 259 260 265 266 268 261
215 254 272 303 303 270 275 287 295 290 285 284 278 267 266 273 274 268 264 271 279 289 294 296 294 290 282 280 277 275 270 261 259 271 284 288 282 278 268 260 252 239 215
250 283 291 281 267 267 275 280 282 274 267 268 263 264 277 295 292 288 287 283 292 298 296 291 286 280 275 272 272 274 280 277 279 283 288 290 288 283 267 265 258 190 185
262 259 259 269 274 272 272 287 304 282 265 270 287 297 304 307 316 335 333 309 305 303 299 295 290 289 288 282 282 282 282 280 285 286 283 281 278 277 261 252 248 157 166
246 248 263 283 290 294 302 310 303 296 297 302 304 322 325 344 43 11 339 310 302 300 300 298 296 298 296 295 297 300 297 292 283 278 279 277 276 268 247 236 189 146 180
257 277 290 297 294 293 307 319 319 327 2 20 16 14 5 333 334 325 321 309 295 297 295 292 297 299 297 289 290 298 296 284 277 279 271 267 269 263 235 219 173 157 131
284 296 302 300 303 329 3 11 17 26 30 21 11 6 352 327 316 320 329 315 299 295 292 289 291 292 289 288 293 291 284 276 273 270 261 260 255 258 220 187 140 111 94
306 313 321 337 3 34 40 33 28 18 13 356 353 351 345 333 330 333 331 314 304 298 296 296 292 292 294 295 294 290 285 284 283 285 280 267 246 210 153 127 128 132 114
322 335 17 50 64 61 49 43 29 19 5 355 347 336 336 332 329 325 321 312 305 305 303 302 303 301 301 302 301 292 289 294 305 322 345 50 76 104 115 119 132 123 110
350 84 78 73 76 72 59 48 31 18 4 347 332 321 333 334 326 320 322 323 312 306 305 304 302 303 307 309 305 292 281 287 302 2 22 61 68 72 75 76 78 87 101
83 83 78 73 68 60 58 47 35 23 7 348 337 335 338 327 327 329 332 329 327 317 306 303 307 315 318 321 316 306 297 289 82 72 60 66 68 66 69 71 73 72 72
86 82 76 59 45 38 36 20 8 4 2 351 346 342 339 333 336 337 334 334 338 334 321 327 328 325 336 339 334 344 16 62 79 80 76 72 69 73 78 82 80 78 73
91 80 57 38 24 18 9 359 351 352 358 358 348 340 337 333 336 339 338 338 340 336 330 331 336 350 1 355 353 10 51 73 77 81 80 78 72 74 74 74 80 89 92
90 73 51 35 29 16 5 355 356 8 20 12 351 338 332 332 334 336 340 343 343 339 334 338 357 8 10 7 16 44 58 67 74 73 79 81 76 77 71 68 87 92 76
93 75 53 40 29 21 9 359 356 357 354 12 1 348 335 329 334 342 345 344 346 345 347 351 5 15 17 13 26 55 62 71 74 74 74 72 80 81 77 77 81 68 66
95 80 57 42 24 10 10 4 352 358 10 4 356 346 344 345 346 349 347 343 349 354 358 353 2 13 19 20 26 53 65 73 73 71 74 78 86 77 75 85 81 66 69
86 76 62 42 25 20 13 1 357 355 352 353 351 344 342 347 350 352 350 352 5 8 1 356 1 7 24 27 23 35 51 71 74 72 75 74 80 66 70 76 83 84 79
87 74 62 50 36 22 13 7 2 358 356 356 357 354 347 350 356 1 1 8 7 4 359 358 356 357 12 25 20 29 46 69 79 83 81 76 75 71 74 76 83 79 82
87 79 69 55 40 29 19 12 7 8 5 6 6 359 350 359 6 3 2 4 7 7 2 359 358 359 5 16 26 38 51 57 57 77 87 87 67 66 65 74 85 88 89
95 77 68 53 33 17 9 10 5 9 10 8 6 4 1 8 3 360 1 3 4 3 2 1 1 0 2 8 23 36 51 58 66 81 90 81 67 73 73 79 85 92 97
100 85 63 41 27 22 18 16 14 14 13 11 8 2 3 9 7 2 2 4 3 2 2 2 4 3 360 359 4 21 51 65 76 76 72 75 69 75 87 87 95 99 97
102 87 69 55 46 36 28 25 23 20 14 9 8 4 4 6 5 3 359 359 0 2 3 6 7 5 4 5 3 16 41 58 77 80 63 62 72 97 106 107 108 103 101
107 91 80 68 52 39 34 29 25 23 22 16 11 10 5 2 2 1 359 356 358 1 4 7 7 5 9 12 8 8 18 23 51 76 81 68 65 88 106 108 107 102 96
104 95 85 63 46 47 44 39 33 28 25 19 14 12 7 2 0 357 356 356 357 360 1 4 6 6 11 18 17 13 21 36 37 40 47 51 63 75 101 109 110 110 109
91 82 71 66 65 57 49 41 36 32 27 20 16 14 13 11 5 359 357 360 360 1 1 3 3 6 10 13 9 8 21 41 39 32 24 27 52 74 99 115 114 113 112